Home   Weather   Fremont   Past weeks

Flag for USA Past Weather in Fremont, California, USA — Yesterday and Last 2 Weeks

Now
39 °F

Clear.


Feels Like: 39 °F
Forecast: 39 / 53 °F
Wind: No wind

Location: Moffett Field

Current Time: Dec 7, 2016 at 4:55:36 am

Latest Report: Dec 7, 2016 at 3:56 am


Visibility: 10 mi

Pressure: 30.16 "Hg

Humidity: 89%

Dew Point: 36 °F

Location of FremontLocation

Past Weather in Fremont — Graph

°F

Fremont Temperature Yesterday

Maximum temperature yesterday: 55 °F (at 12:56 pm)
Minimum temperature yesterday: 43 °F (at 3:56 am)
Average temperature yesterday: 48 °F

High & Low Weather Summary for the Past Weeks

 TemperatureHumidityPressure
High63 °F (Dec 3, 12:56 pm)96% (Nov 24, 7:56 am)30.39 "Hg (Nov 24, 7:56 am)
Low40 °F (Nov 24, 5:56 am)25% (Dec 2, 1:56 pm)29.85 "Hg (Nov 26, 3:56 am)
Average51 °F71%30.14 "Hg
* Reported Nov 22 2:56 am — Dec 7 2:56 am, Fremont, Weather by CustomWeather, © 2016

Note: Actual official high and low records may vary slightly from our data, if they occured in-between our weather recording intervals... More about our weather records

Advertising

Fremont Weather History for the Previous 24 Hours

Scroll right to see more
 ConditionsComfort  
Time TempWeatherWind HumidityBarometerVisibility
2:56 am
Wed, Dec 7
40 °FClear.No wind83%30.16 "Hg10 mi
1:56 am42 °FClear.3 mph79%30.16 "Hg10 mi
12:56 am43 °FClear.No wind79%30.17 "Hg10 mi
11:56 pm
Tue, Dec 6
44 °FClear.3 mph73%30.16 "Hg10 mi
10:56 pm44 °FClear.No wind76%30.15 "Hg10 mi
9:56 pm45 °FClear.No wind71%30.14 "Hg10 mi
8:56 pm47 °FClear.3 mph69%30.13 "Hg10 mi
7:56 pm49 °FClear.No wind66%30.13 "Hg10 mi
6:56 pm49 °FClear.3 mph66%30.12 "Hg10 mi
5:56 pm50 °FClear.6 mph63%30.11 "Hg10 mi
4:56 pm52 °FClear.6 mph55%30.10 "Hg10 mi
3:56 pm55 °FSunny.7 mph49%30.09 "Hg10 mi
2:56 pm55 °FPartly sunny.9 mph55%30.09 "Hg10 mi
1:56 pm53 °FSunny.7 mph55%30.09 "Hg10 mi
12:56 pm55 °FSunny.7 mph53%30.10 "Hg10 mi
11:56 am54 °FSunny.8 mph53%30.12 "Hg10 mi
10:56 am53 °FSunny.7 mph56%30.13 "Hg10 mi
9:56 am51 °FSunny.No wind63%30.14 "Hg10 mi
8:56 am49 °FSunny.No wind66%30.14 "Hg10 mi
7:56 am45 °FSunny.3 mph74%30.11 "Hg10 mi
6:56 am43 °FClear.5 mph76%30.10 "Hg9 mi
5:56 am43 °FClear.3 mph76%30.09 "Hg10 mi
4:56 am43 °FClear.3 mph82%30.08 "Hg10 mi
Weather by CustomWeather, © 2016

See weather overviewHow to use our weather pages